Location: Unspecified
(0.0000°N, 0.0000°E)
Time: 14:15:23
(UTC+00:00)

Vanguard 1 Rocket - Pass Details

Date: 21 March 2018
Orbit: 654 x 4223 km, 34.3° (Epoch: 21 April)

Event Time Altitude Azimuth Distance (km) Brightness Sun altitude
Rises 23:25:24 0° 308° (NW) 6,160 11.8 -79.6°
Reaches altitude 10° 23:28:43 10° 309° (NW) 5,517 11.4 -80.4°
Enters shadow 23:28:53 11° 309° (NW) 5,488 11.4 -80.4°
Maximum altitude 23:48:00 88° 39° (NE) 3,918 - -85.2°
Exits shadow 00:10:59 18° 127° (SE) 6,633 11.6 -88.9°
Drops below altitude 10° 00:14:49 10° 127° (SE) 7,224 11.9 -88.0°
Sets 00:19:59 0° 127° (SE) 8,031 12.3 -86.7°
